OneWeb SL0506

operational
NORAD ID: 54124 Int'l Des: 2022-138 Owner: ONEWEBN Country: UK Constellation: oneweb
LEOCIRCULARPOLARONEWEB_TYPE

关于 OneWeb SL0506

正在加载描述...

实时位置

正在加载3D地球...

即将过境

高度历史

Altitude vs Time

uPlot chart will show altitude changes over time

两行轨道根数

1 54124U 22138M 26095.16407284 .00000114 00000-0 25150-3 0 9998
2 54124 87.9192 319.5185 0001998 88.3964 271.7398 13.19727442167170
Epoch: Apr 5, 2026 • Age: 12 hours

当前状态

高度 1187.6 km
速度 7.26 km/s
星下点 13.91°N, 69.54°E
发射日期 Oct 22, 2022
运行时间 3.4 years
类型 internet

技术详情

分类 Payload
质量 148.00 kg
干质量 140.00 kg
总质量 148.00 kg
长度 1.30 m
直径 1.00 m
跨度 5.00 m
形状 Trapezoid+2 pan
制造商 ONEWUS
平台类型 ARROW
阶段状态 In Orbit
所有者/国家 ONEWEBN/UK

大型星座

Loading constellations...